Time,TemperatureF,DewpointF,PressureIn,WindDirection,WindDirectionDegrees,WindSpeedMPH,WindSpeedGustMPH,Humidity,HourlyPrecipIn,Conditions,Clouds,dailyrainin,SoftwareType,DateUTC
2013-01-13 00:00:00,42.6,41.3,30.11,SSW,192,0.0,0.0,95,0.00,,,0.00,Wunderground v.1.15,2013-01-13 05:00:00,
2013-01-13 00:01:00,42.6,41.3,30.11,SSW,192,0.0,0.0,95,0.00,,,0.00,Wunderground v.1.15,2013-01-13 05:01:00,
2013-01-13 00:04:00,42.6,41.3,30.11,SSW,192,0.0,0.0,95,0.00,,,0.00,Wunderground v.1.15,2013-01-13 05:04:00,
2013-01-13 00:05:00,42.6,41.3,30.11,SSW,192,0.0,0.0,95,0.00,,,0.00,Wunderground v.1.15,2013-01-13 05:05:00,
2013-01-13 00:10:00,42.6,41.3,30.11,SSW,192,0.0,0.0,95,0.00,,,0.00,Wunderground v.1.15,2013-01-13 05:10:00,
2013-01-13 00:15:00,42.5,41.4,30.10,SSW,192,0.0,0.0,96,0.00,,,0.00,Wunderground v.1.15,2013-01-13 05:15:00,
2013-01-13 00:20:00,42.6,41.5,30.10,SSW,192,0.0,0.0,96,0.00,,,0.00,Wunderground v.1.15,2013-01-13 05:20:00,
2013-01-13 00:26:00,42.6,41.5,30.10,SSW,192,0.0,0.0,96,0.00,,,0.00,Wunderground v.1.15,2013-01-13 05:26:00,
2013-01-13 00:31:00,42.6,41.5,30.09,SSW,192,0.0,0.0,96,0.00,,,0.00,Wunderground v.1.15,2013-01-13 05:31:00,
2013-01-13 00:36:00,42.6,41.5,30.09,SSW,192,0.0,0.0,96,0.00,,,0.00,Wunderground v.1.15,2013-01-13 05:36:00,
2013-01-13 00:42:00,42.6,41.5,30.09,SSW,192,0.0,0.0,96,0.00,,,0.00,Wunderground v.1.15,2013-01-13 05:42:00,
2013-01-13 00:47:00,42.6,41.5,30.09,SSW,192,0.0,0.0,96,0.00,,,0.00,Wunderground v.1.15,2013-01-13 05:47:00,
2013-01-13 00:52:00,42.6,41.5,30.09,SSE,151,0.0,0.0,96,0.00,,,0.00,Wunderground v.1.15,2013-01-13 05:52:00,
2013-01-13 00:57:00,42.6,41.5,30.09,SW,229,0.0,0.0,96,0.00,,,0.00,Wunderground v.1.15,2013-01-13 05:57:00,
2013-01-13 01:02:00,42.6,41.5,30.09,South,184,0.0,0.0,96,0.00,,,0.00,Wunderground v.1.15,2013-01-13 06:02:00,
2013-01-13 01:08:00,42.8,41.7,30.09,South,178,0.0,0.0,96,0.00,,,0.00,Wunderground v.1.15,2013-01-13 06:08:00,
2013-01-13 01:14:00,42.8,41.7,30.09,South,178,0.0,0.0,96,0.00,,,0.00,Wunderground v.1.15,2013-01-13 06:14:00,
2013-01-13 01:20:00,42.8,41.7,30.09,South,176,0.0,0.0,96,0.00,,,0.00,Wunderground v.1.15,2013-01-13 06:20:00,
2013-01-13 01:25:00,42.8,41.7,30.09,SSE,157,0.0,0.0,96,0.00,,,0.00,Wunderground v.1.15,2013-01-13 06:25:00,
2013-01-13 01:30:00,42.8,41.7,30.09,SSE,157,0.0,0.0,96,0.00,,,0.00,Wunderground v.1.15,2013-01-13 06:30:00,
2013-01-13 01:35:00,42.8,41.7,30.09,SSE,158,0.0,0.0,96,0.00,,,0.00,Wunderground v.1.15,2013-01-13 06:35:00,
2013-01-13 01:40:00,42.9,41.8,30.09,SSE,158,0.0,0.0,96,0.00,,,0.00,Wunderground v.1.15,2013-01-13 06:40:00,
2013-01-13 01:45:00,42.9,42.1,30.08,SSE,158,0.0,0.0,97,0.00,,,0.00,Wunderground v.1.15,2013-01-13 06:45:00,
2013-01-13 01:51:00,42.9,42.1,30.08,SSE,157,0.0,0.0,97,0.00,,,0.00,Wunderground v.1.15,2013-01-13 06:51:00,
2013-01-13 01:56:00,42.9,42.1,30.08,SSE,158,0.0,0.0,97,0.00,,,0.00,Wunderground v.1.15,2013-01-13 06:56:00,
2013-01-13 02:01:00,42.9,42.1,30.09,SSE,157,0.0,0.0,97,0.00,,,0.00,Wunderground v.1.15,2013-01-13 07:01:00,
2013-01-13 02:06:00,42.9,42.1,30.09,SSE,157,0.0,0.0,97,0.00,,,0.00,Wunderground v.1.15,2013-01-13 07:06:00,
2013-01-13 02:11:00,42.9,42.1,30.09,SSE,158,0.0,0.0,97,0.00,,,0.00,Wunderground v.1.15,2013-01-13 07:11:00,
2013-01-13 02:17:00,42.9,42.1,30.08,SSE,158,0.0,0.0,97,0.00,,,0.00,Wunderground v.1.15,2013-01-13 07:17:00,
2013-01-13 02:22:00,42.9,42.1,30.08,SSE,158,0.0,0.0,97,0.00,,,0.00,Wunderground v.1.15,2013-01-13 07:22:00,
2013-01-13 02:27:00,43.1,42.3,30.08,SSE,157,0.0,0.0,97,0.00,,,0.00,Wunderground v.1.15,2013-01-13 07:27:00,
2013-01-13 02:32:00,43.1,42.3,30.08,SSE,158,0.0,0.0,97,0.00,,,0.00,Wunderground v.1.15,2013-01-13 07:32:00,
2013-01-13 02:37:00,43.1,42.3,30.08,SSE,158,0.0,0.0,97,0.00,,,0.00,Wunderground v.1.15,2013-01-13 07:37:00,
2013-01-13 02:42:00,43.1,42.3,30.08,SSE,158,0.0,0.0,97,0.00,,,0.00,Wunderground v.1.15,2013-01-13 07:42:00,
2013-01-13 02:48:00,43.1,42.3,30.08,SSE,157,0.0,0.0,97,0.00,,,0.00,Wunderground v.1.15,2013-01-13 07:48:00,
2013-01-13 02:53:00,43.1,42.3,30.08,SSE,158,0.0,0.0,97,0.00,,,0.00,Wunderground v.1.15,2013-01-13 07:53:00,
2013-01-13 02:58:00,43.1,42.3,30.08,SSE,157,0.0,0.0,97,0.00,,,0.00,Wunderground v.1.15,2013-01-13 07:58:00,
2013-01-13 03:03:00,43.1,42.3,30.08,SSE,157,0.0,0.0,97,0.00,,,0.00,Wunderground v.1.15,2013-01-13 08:03:00,
2013-01-13 03:08:00,43.1,42.3,30.08,SSE,157,0.0,0.0,97,0.00,,,0.00,Wunderground v.1.15,2013-01-13 08:08:00,
2013-01-13 03:13:00,43.2,42.4,30.08,SSE,157,0.0,0.0,97,0.00,,,0.00,Wunderground v.1.15,2013-01-13 08:13:00,
2013-01-13 03:18:00,43.2,42.4,30.07,SSE,158,0.0,0.0,97,0.00,,,0.00,Wunderground v.1.15,2013-01-13 08:18:00,
2013-01-13 03:24:00,43.2,42.7,30.07,SSE,157,0.0,0.0,98,0.00,,,0.00,Wunderground v.1.15,2013-01-13 08:24:00,
2013-01-13 03:29:00,43.3,42.8,30.07,SSE,158,0.0,0.0,98,0.00,,,0.00,Wunderground v.1.15,2013-01-13 08:29:00,
2013-01-13 03:35:00,43.3,42.8,30.05,SSE,157,0.0,0.0,98,0.00,,,0.00,Wunderground v.1.15,2013-01-13 08:35:00,
2013-01-13 03:40:00,43.3,42.8,30.05,SSE,157,0.0,0.0,98,0.00,,,0.00,Wunderground v.1.15,2013-01-13 08:40:00,
2013-01-13 03:45:00,43.3,42.8,30.05,SSE,157,0.0,0.0,98,0.00,,,0.00,Wunderground v.1.15,2013-01-13 08:45:00,
2013-01-13 03:51:00,43.3,42.8,30.05,SSE,158,0.0,0.0,98,0.00,,,0.00,Wunderground v.1.15,2013-01-13 08:51:00,
2013-01-13 03:56:00,43.3,42.8,30.05,SSE,158,0.0,0.0,98,0.00,,,0.00,Wunderground v.1.15,2013-01-13 08:56:00,
2013-01-13 04:01:00,43.3,42.8,30.06,SSE,158,0.0,0.0,98,0.00,,,0.00,Wunderground v.1.15,2013-01-13 09:01:00,
2013-01-13 04:06:00,43.3,42.8,30.06,SSE,158,0.0,0.0,98,0.00,,,0.00,Wunderground v.1.15,2013-01-13 09:06:00,
2013-01-13 04:11:00,43.3,42.8,30.06,SSE,158,0.0,0.0,98,0.00,,,0.00,Wunderground v.1.15,2013-01-13 09:11:00,
2013-01-13 04:17:00,43.3,42.8,30.07,SSE,158,0.0,0.0,98,0.00,,,0.00,Wunderground v.1.15,2013-01-13 09:17:00,
2013-01-13 04:22:00,43.3,42.8,30.07,SSE,158,0.0,0.0,98,0.00,,,0.00,Wunderground v.1.15,2013-01-13 09:22:00,
2013-01-13 04:27:00,43.3,42.8,30.07,SSE,158,0.0,0.0,98,0.00,,,0.00,Wunderground v.1.15,2013-01-13 09:27:00,
2013-01-13 04:32:00,43.5,43.0,30.05,SSE,158,0.0,0.0,98,0.00,,,0.00,Wunderground v.1.15,2013-01-13 09:32:00,
2013-01-13 04:38:00,43.5,43.0,30.05,SSE,158,0.0,0.0,98,0.00,,,0.00,Wunderground v.1.15,2013-01-13 09:38:00,
2013-01-13 04:43:00,43.5,43.0,30.05,SSE,157,0.0,0.0,98,0.00,,,0.00,Wunderground v.1.15,2013-01-13 09:43:00,
2013-01-13 04:48:00,43.5,43.0,30.04,SSE,158,0.0,0.0,98,0.00,,,0.00,Wunderground v.1.15,2013-01-13 09:48:00,
2013-01-13 04:53:00,43.5,43.0,30.04,SSE,158,0.0,0.0,98,0.00,,,0.00,Wunderground v.1.15,2013-01-13 09:53:00,
2013-01-13 04:58:00,43.5,43.0,30.04,SSE,158,0.0,0.0,98,0.00,,,0.00,Wunderground v.1.15,2013-01-13 09:58:00,
2013-01-13 05:04:00,43.6,43.3,30.03,SSE,157,0.0,0.0,99,0.00,,,0.00,Wunderground v.1.15,2013-01-13 10:04:00,
2013-01-13 05:09:00,43.6,43.3,30.03,SSE,154,0.0,0.0,99,0.00,,,0.00,Wunderground v.1.15,2013-01-13 10:09:00,
2013-01-13 05:14:00,43.6,43.3,30.03,SSE,154,0.0,0.0,99,0.00,,,0.00,Wunderground v.1.15,2013-01-13 10:14:00,
2013-01-13 05:19:00,43.6,43.3,30.03,SSE,154,0.0,0.0,99,0.00,,,0.00,Wunderground v.1.15,2013-01-13 10:19:00,
2013-01-13 05:24:00,43.6,43.3,30.03,SSE,154,0.0,0.0,99,0.00,,,0.00,Wunderground v.1.15,2013-01-13 10:24:00,
2013-01-13 05:29:00,43.6,43.3,30.03,SSE,154,0.0,0.0,99,0.00,,,0.00,Wunderground v.1.15,2013-01-13 10:29:00,
2013-01-13 05:34:00,43.6,43.3,30.04,SSE,154,0.0,0.0,99,0.00,,,0.00,Wunderground v.1.15,2013-01-13 10:34:00,
2013-01-13 05:39:00,43.6,43.3,30.04,SSE,154,0.0,0.0,99,0.00,,,0.00,Wunderground v.1.15,2013-01-13 10:39:00,
2013-01-13 05:44:00,43.8,43.5,30.04,SSE,154,0.0,0.0,99,0.00,,,0.00,Wunderground v.1.15,2013-01-13 10:44:00,
2013-01-13 05:50:00,43.8,43.5,30.04,SSE,154,0.0,0.0,99,0.00,,,0.00,Wunderground v.1.15,2013-01-13 10:50:00,
2013-01-13 05:55:00,43.8,43.5,30.04,SSW,199,0.0,0.0,99,0.00,,,0.00,Wunderground v.1.15,2013-01-13 10:55:00,
2013-01-13 06:00:00,43.8,43.5,30.05,SSW,199,0.0,0.0,99,0.00,,,0.00,Wunderground v.1.15,2013-01-13 11:00:00,
2013-01-13 06:05:00,43.8,43.5,30.05,South,191,0.0,1.0,99,0.00,,,0.00,Wunderground v.1.15,2013-01-13 11:05:00,
2013-01-13 06:11:00,43.9,43.6,30.05,South,176,0.0,0.0,99,0.00,,,0.00,Wunderground v.1.15,2013-01-13 11:11:00,
2013-01-13 06:16:00,43.9,43.6,30.05,South,171,0.0,0.0,99,0.00,,,0.00,Wunderground v.1.15,2013-01-13 11:16:00,
2013-01-13 06:21:00,43.9,43.6,30.05,SSE,151,0.0,0.0,99,0.00,,,0.00,Wunderground v.1.15,2013-01-13 11:21:00,
2013-01-13 06:26:00,43.9,43.6,30.05,SSE,151,0.0,0.0,99,0.00,,,0.00,Wunderground v.1.15,2013-01-13 11:26:00,
2013-01-13 06:31:00,43.9,43.6,30.05,SSE,151,0.0,0.0,99,0.00,,,0.00,Wunderground v.1.15,2013-01-13 11:31:00,
2013-01-13 06:36:00,43.9,43.6,30.05,SSE,150,0.0,0.0,99,0.00,,,0.00,Wunderground v.1.15,2013-01-13 11:36:00,
2013-01-13 06:41:00,43.9,43.6,30.05,SSE,151,0.0,0.0,99,0.00,,,0.00,Wunderground v.1.15,2013-01-13 11:41:00,
2013-01-13 06:47:00,43.9,43.6,30.04,SSE,154,0.0,0.0,99,0.00,,,0.00,Wunderground v.1.15,2013-01-13 11:47:00,
2013-01-13 06:52:00,44.1,43.8,30.04,SSE,154,0.0,0.0,99,0.00,,,0.00,Wunderground v.1.15,2013-01-13 11:52:00,
2013-01-13 06:57:00,44.1,43.8,30.04,SSE,167,0.0,0.0,99,0.00,,,0.00,Wunderground v.1.15,2013-01-13 11:57:00,
2013-01-13 07:03:00,44.1,43.8,30.05,SSE,167,0.0,0.0,99,0.00,,,0.00,Wunderground v.1.15,2013-01-13 12:03:00,
2013-01-13 07:08:00,44.1,43.8,30.05,South,184,0.0,0.0,99,0.00,,,0.00,Wunderground v.1.15,2013-01-13 12:08:00,
2013-01-13 07:13:00,44.2,43.9,30.05,SSE,155,0.0,0.0,99,0.00,,,0.00,Wunderground v.1.15,2013-01-13 12:13:00,
2013-01-13 07:18:00,44.2,43.9,30.05,SE,144,0.0,0.0,99,0.00,,,0.00,Wunderground v.1.15,2013-01-13 12:18:00,
2013-01-13 07:23:00,44.2,43.9,30.05,SE,138,0.0,0.0,99,0.00,,,0.00,Wunderground v.1.15,2013-01-13 12:23:00,
2013-01-13 07:29:00,44.3,44.0,30.05,South,172,0.0,0.0,99,0.00,,,0.00,Wunderground v.1.15,2013-01-13 12:29:00,
2013-01-13 07:35:00,44.3,44.0,30.05,SSE,151,0.0,1.0,99,0.00,,,0.00,Wunderground v.1.15,2013-01-13 12:35:00,
2013-01-13 07:40:00,44.3,44.3,30.05,SSE,147,0.0,1.0,100,0.00,,,0.00,Wunderground v.1.15,2013-01-13 12:40:00,
2013-01-13 07:45:00,44.5,44.5,30.05,SSE,148,0.0,1.0,100,0.00,,,0.00,Wunderground v.1.15,2013-01-13 12:45:00,
2013-01-13 07:51:00,44.5,44.5,30.05,SE,137,0.0,1.0,100,0.00,,,0.00,Wunderground v.1.15,2013-01-13 12:51:00,
2013-01-13 07:56:00,44.5,44.5,30.05,SE,137,0.0,1.0,100,0.00,,,0.00,Wunderground v.1.15,2013-01-13 12:56:00,
2013-01-13 08:02:00,44.5,44.5,30.06,SE,137,0.0,0.0,100,0.00,,,0.00,Wunderground v.1.15,2013-01-13 13:02:00,
2013-01-13 08:07:00,44.6,44.6,30.06,SE,137,0.0,0.0,100,0.00,,,0.00,Wunderground v.1.15,2013-01-13 13:07:00,
2013-01-13 08:12:00,44.6,44.6,30.06,SE,145,0.0,0.0,100,0.00,,,0.00,Wunderground v.1.15,2013-01-13 13:12:00,
2013-01-13 08:17:00,44.8,44.8,30.06,SSE,158,0.0,0.0,100,0.00,,,0.00,Wunderground v.1.15,2013-01-13 13:17:00,
2013-01-13 08:22:00,44.8,44.8,30.06,SE,138,0.0,0.0,100,0.00,,,0.00,Wunderground v.1.15,2013-01-13 13:22:00,
2013-01-13 08:28:00,44.9,44.9,30.06,SE,138,0.0,0.0,100,0.00,,,0.00,Wunderground v.1.15,2013-01-13 13:28:00,
2013-01-13 08:33:00,44.9,44.9,30.06,SE,140,0.0,0.0,100,0.00,,,0.00,Wunderground v.1.15,2013-01-13 13:33:00,
2013-01-13 08:38:00,44.9,44.9,30.06,SE,143,0.0,0.0,100,0.00,,,0.00,Wunderground v.1.15,2013-01-13 13:38:00,
2013-01-13 08:43:00,45.1,45.1,30.06,SSE,151,0.0,0.0,100,0.00,,,0.00,Wunderground v.1.15,2013-01-13 13:43:00,
2013-01-13 08:48:00,45.1,45.1,30.06,SSE,151,0.0,0.0,100,0.00,,,0.00,Wunderground v.1.15,2013-01-13 13:48:00,
2013-01-13 08:53:00,45.2,45.2,30.06,South,171,0.0,0.0,100,0.00,,,0.00,Wunderground v.1.15,2013-01-13 13:53:00,
2013-01-13 08:58:00,45.4,45.4,30.06,SE,145,0.0,0.0,100,0.00,,,0.00,Wunderground v.1.15,2013-01-13 13:58:00,
2013-01-13 09:04:00,45.5,45.5,30.06,SE,127,0.0,0.0,100,0.00,,,0.00,Wunderground v.1.15,2013-01-13 14:04:00,
2013-01-13 09:09:00,45.5,45.5,30.06,SSE,154,0.0,1.0,100,0.00,,,0.00,Wunderground v.1.15,2013-01-13 14:09:00,
2013-01-13 09:14:00,45.7,45.7,30.06,ESE,120,0.0,0.0,100,0.00,,,0.00,Wunderground v.1.15,2013-01-13 14:14:00,
2013-01-13 09:20:00,45.8,45.8,30.05,SE,145,0.0,0.0,100,0.00,,,0.00,Wunderground v.1.15,2013-01-13 14:20:00,
2013-01-13 09:25:00,46.0,46.0,30.05,South,188,0.0,0.0,100,0.00,,,0.00,Wunderground v.1.15,2013-01-13 14:25:00,
2013-01-13 09:30:00,46.1,46.1,30.06,South,188,0.0,0.0,100,0.00,,,0.00,Wunderground v.1.15,2013-01-13 14:30:00,
2013-01-13 09:35:00,46.2,46.2,30.06,South,181,0.0,0.0,100,0.00,,,0.00,Wunderground v.1.15,2013-01-13 14:35:00,
2013-01-13 09:40:00,46.4,46.4,30.06,SSE,147,0.0,0.0,100,0.00,,,0.00,Wunderground v.1.15,2013-01-13 14:40:00,
2013-01-13 09:45:00,46.5,46.5,30.06,SSE,161,0.0,0.0,100,0.00,,,0.00,Wunderground v.1.15,2013-01-13 14:45:00,
2013-01-13 09:50:00,46.8,46.8,30.06,South,171,0.0,0.0,100,0.00,,,0.00,Wunderground v.1.15,2013-01-13 14:50:00,
2013-01-13 09:56:00,47.1,47.1,30.06,WSW,257,0.0,2.0,100,0.00,,,0.00,Wunderground v.1.15,2013-01-13 14:56:00,
2013-01-13 10:02:00,47.4,47.4,30.08,SSW,206,0.0,0.0,100,0.00,,,0.00,Wunderground v.1.15,2013-01-13 15:02:00,
2013-01-13 10:07:00,47.7,47.7,30.08,SSW,199,0.0,0.0,100,0.00,,,0.00,Wunderground v.1.15,2013-01-13 15:07:00,
2013-01-13 10:12:00,48.0,48.0,30.08,SSW,199,0.0,0.0,100,0.00,,,0.00,Wunderground v.1.15,2013-01-13 15:12:00,
2013-01-13 10:17:00,48.3,48.3,30.08,SSW,199,0.0,0.0,100,0.00,,,0.00,Wunderground v.1.15,2013-01-13 15:17:00,
2013-01-13 10:22:00,48.5,48.5,30.08,SSW,198,0.0,0.0,100,0.00,,,0.00,Wunderground v.1.15,2013-01-13 15:22:00,
2013-01-13 10:27:00,48.6,48.6,30.08,West,280,0.0,0.0,100,0.00,,,0.00,Wunderground v.1.15,2013-01-13 15:27:00,
2013-01-13 10:33:00,48.8,48.8,30.09,West,280,0.0,0.0,100,0.00,,,0.00,Wunderground v.1.15,2013-01-13 15:33:00,
2013-01-13 10:38:00,48.9,48.9,30.09,West,280,0.0,0.0,100,0.00,,,0.00,Wunderground v.1.15,2013-01-13 15:38:00,
2013-01-13 10:43:00,49.1,49.1,30.09,South,191,0.0,0.0,100,0.00,,,0.00,Wunderground v.1.15,2013-01-13 15:43:00,
2013-01-13 10:48:00,49.1,49.1,30.08,South,191,0.0,0.0,100,0.00,,,0.00,Wunderground v.1.15,2013-01-13 15:48:00,
2013-01-13 10:54:00,49.2,49.2,30.08,SE,141,0.0,0.0,100,0.00,,,0.00,Wunderground v.1.15,2013-01-13 15:54:00,
2013-01-13 10:59:00,49.4,49.4,30.08,South,191,0.0,0.0,100,0.00,,,0.00,Wunderground v.1.15,2013-01-13 15:59:00,
2013-01-13 11:05:00,49.5,49.5,30.07,SE,133,0.0,0.0,100,0.00,,,0.00,Wunderground v.1.15,2013-01-13 16:05:00,
2013-01-13 11:10:00,49.6,49.6,30.07,SE,126,0.0,0.0,100,0.00,,,0.00,Wunderground v.1.15,2013-01-13 16:10:00,
2013-01-13 11:15:00,49.6,49.6,30.05,SSE,162,0.0,0.0,100,0.00,,,0.00,Wunderground v.1.15,2013-01-13 16:15:00,
2013-01-13 11:20:00,49.6,49.6,30.05,SE,124,0.0,0.0,100,0.00,,,0.00,Wunderground v.1.15,2013-01-13 16:20:00,
2013-01-13 11:25:00,49.8,49.8,30.05,SSW,206,0.0,0.0,100,0.00,,,0.00,Wunderground v.1.15,2013-01-13 16:25:00,
2013-01-13 11:31:00,49.8,49.8,30.04,SSE,148,0.0,1.0,100,0.00,,,0.00,Wunderground v.1.15,2013-01-13 16:31:00,
2013-01-13 11:36:00,49.8,49.8,30.04,SSE,150,0.0,1.0,100,0.00,,,0.00,Wunderground v.1.15,2013-01-13 16:36:00,
2013-01-13 11:41:00,49.9,49.9,30.04,SE,127,0.0,1.0,100,0.00,,,0.00,Wunderground v.1.15,2013-01-13 16:41:00,
2013-01-13 11:46:00,50.1,50.1,30.03,SE,127,0.0,1.0,100,0.00,,,0.00,Wunderground v.1.15,2013-01-13 16:46:00,
2013-01-13 11:51:00,50.2,50.2,30.03,SSW,208,0.0,1.0,100,0.00,,,0.00,Wunderground v.1.15,2013-01-13 16:51:00,
2013-01-13 11:56:00,50.4,50.4,30.03,SSW,208,0.0,1.0,100,0.00,,,0.00,Wunderground v.1.15,2013-01-13 16:56:00,
2013-01-13 12:02:00,50.5,50.5,30.02,SSE,164,0.0,0.0,100,0.00,,,0.00,Wunderground v.1.15,2013-01-13 17:02:00,
2013-01-13 12:07:00,50.5,50.5,30.02,SSE,158,0.0,0.0,100,0.00,,,0.00,Wunderground v.1.15,2013-01-13 17:07:00,
2013-01-13 12:12:00,50.7,50.7,30.02,SSE,154,0.0,0.0,100,0.00,,,0.00,Wunderground v.1.15,2013-01-13 17:12:00,
2013-01-13 12:18:00,50.7,50.7,30.02,SSE,154,0.0,0.0,100,0.00,,,0.00,Wunderground v.1.15,2013-01-13 17:18:00,
2013-01-13 12:24:00,50.8,50.8,30.02,SSW,202,0.0,0.0,100,0.00,,,0.00,Wunderground v.1.15,2013-01-13 17:24:00,
2013-01-13 12:29:00,50.8,50.8,30.02,SSW,202,0.0,0.0,100,0.00,,,0.00,Wunderground v.1.15,2013-01-13 17:29:00,
2013-01-13 12:34:00,51.0,51.0,30.01,SSW,202,0.0,4.0,100,0.00,,,0.00,Wunderground v.1.15,2013-01-13 17:34:00,
2013-01-13 12:39:00,51.0,51.0,30.01,SSW,202,0.0,4.0,100,0.00,,,0.00,Wunderground v.1.15,2013-01-13 17:39:00,
2013-01-13 12:44:00,51.1,51.1,30.01,SSE,162,0.0,4.0,100,0.00,,,0.00,Wunderground v.1.15,2013-01-13 17:44:00,
2013-01-13 12:49:00,51.1,51.1,30.01,SSE,151,0.0,4.0,100,0.00,,,0.00,Wunderground v.1.15,2013-01-13 17:49:00,
2013-01-13 12:55:00,51.3,51.3,30.01,SSE,150,0.0,4.0,100,0.00,,,0.00,Wunderground v.1.15,2013-01-13 17:55:00,
2013-01-13 13:00:00,51.4,51.4,30.00,SSE,150,0.0,0.0,100,0.00,,,0.01,Wunderground v.1.15,2013-01-13 18:00:00,
2013-01-13 13:06:00,51.6,51.6,30.00,SSE,150,0.0,0.0,100,0.00,,,0.01,Wunderground v.1.15,2013-01-13 18:06:00,
2013-01-13 13:11:00,51.7,51.7,30.00,South,191,0.0,0.0,100,0.00,,,0.01,Wunderground v.1.15,2013-01-13 18:11:00,
2013-01-13 13:16:00,51.9,51.9,30.00,SSE,165,0.0,0.0,100,0.00,,,0.01,Wunderground v.1.15,2013-01-13 18:16:00,
2013-01-13 13:21:00,52.0,52.0,30.00,SSE,155,0.0,0.0,100,0.00,,,0.01,Wunderground v.1.15,2013-01-13 18:21:00,
2013-01-13 13:26:00,52.2,52.2,30.00,SSW,209,0.0,0.0,100,0.00,,,0.01,Wunderground v.1.15,2013-01-13 18:26:00,
2013-01-13 13:31:00,52.3,52.3,30.00,SSE,157,0.0,1.0,100,0.00,,,0.01,Wunderground v.1.15,2013-01-13 18:31:00,
2013-01-13 13:36:00,52.3,52.3,30.00,SSW,198,0.0,1.0,100,0.00,,,0.01,Wunderground v.1.15,2013-01-13 18:36:00,
2013-01-13 13:41:00,52.5,52.5,30.00,SSE,154,0.0,1.0,100,0.00,,,0.01,Wunderground v.1.15,2013-01-13 18:41:00,
2013-01-13 13:47:00,52.6,52.6,29.99,SSE,154,0.0,1.0,100,0.00,,,0.01,Wunderground v.1.15,2013-01-13 18:47:00,
2013-01-13 13:52:00,52.8,52.8,29.99,SSW,192,0.0,1.0,100,0.00,,,0.01,Wunderground v.1.15,2013-01-13 18:52:00,
2013-01-13 13:58:00,52.9,52.9,29.99,SSE,154,0.0,1.0,100,0.00,,,0.01,Wunderground v.1.15,2013-01-13 18:58:00,
2013-01-13 14:03:00,53.1,53.1,29.98,SE,124,0.0,0.0,100,0.00,,,0.01,Wunderground v.1.15,2013-01-13 19:03:00,
2013-01-13 14:08:00,53.1,53.1,29.98,South,189,0.0,0.0,100,0.00,,,0.01,Wunderground v.1.15,2013-01-13 19:08:00,
2013-01-13 14:13:00,53.2,53.2,29.98,SSE,165,0.0,0.0,100,0.00,,,0.01,Wunderground v.1.15,2013-01-13 19:13:00,
2013-01-13 14:19:00,53.2,53.2,29.99,SSE,165,0.0,0.0,100,0.00,,,0.01,Wunderground v.1.15,2013-01-13 19:19:00,
2013-01-13 14:24:00,53.3,53.3,29.99,SSE,165,0.0,0.0,100,0.00,,,0.01,Wunderground v.1.15,2013-01-13 19:24:00,
2013-01-13 14:29:00,53.5,53.5,29.99,SSE,167,0.0,0.0,100,0.00,,,0.01,Wunderground v.1.15,2013-01-13 19:29:00,
2013-01-13 14:34:00,53.5,53.5,30.00,South,182,0.0,0.0,100,0.00,,,0.01,Wunderground v.1.15,2013-01-13 19:34:00,
2013-01-13 14:39:00,53.6,53.6,30.00,SSE,151,0.0,0.0,100,0.00,,,0.01,Wunderground v.1.15,2013-01-13 19:39:00,
2013-01-13 14:44:00,53.6,53.6,30.00,SE,127,0.0,0.0,100,0.00,,,0.01,Wunderground v.1.15,2013-01-13 19:44:00,
2013-01-13 14:49:00,53.6,53.6,29.99,SW,216,0.0,0.0,100,0.00,,,0.01,Wunderground v.1.15,2013-01-13 19:49:00,
2013-01-13 14:55:00,53.8,53.8,29.99,SE,134,0.0,0.0,100,0.00,,,0.01,Wunderground v.1.15,2013-01-13 19:55:00,
2013-01-13 15:00:00,53.8,53.8,29.99,SSE,160,0.0,0.0,100,0.00,,,0.01,Wunderground v.1.15,2013-01-13 20:00:00,
2013-01-13 15:05:00,53.9,53.9,29.99,SSE,160,0.0,0.0,100,0.00,,,0.01,Wunderground v.1.15,2013-01-13 20:05:00,
2013-01-13 15:11:00,53.9,53.9,29.99,SSE,150,0.0,0.0,100,0.00,,,0.01,Wunderground v.1.15,2013-01-13 20:11:00,
2013-01-13 15:16:00,53.9,53.9,30.00,SSE,150,0.0,0.0,100,0.00,,,0.01,Wunderground v.1.15,2013-01-13 20:16:00,
2013-01-13 15:21:00,54.1,54.1,30.00,SSE,150,0.0,0.0,100,0.00,,,0.01,Wunderground v.1.15,2013-01-13 20:21:00,
2013-01-13 15:26:00,54.1,54.1,30.00,SE,143,0.0,0.0,100,0.00,,,0.01,Wunderground v.1.15,2013-01-13 20:26:00,
2013-01-13 15:31:00,54.1,54.1,29.99,SE,143,0.0,1.0,100,0.00,,,0.01,Wunderground v.1.15,2013-01-13 20:31:00,
2013-01-13 15:36:00,54.1,54.1,29.99,SSE,157,0.0,1.0,100,0.00,,,0.01,Wunderground v.1.15,2013-01-13 20:36:00,
2013-01-13 15:41:00,54.1,54.1,29.99,SSW,196,0.0,1.0,100,0.00,,,0.01,Wunderground v.1.15,2013-01-13 20:41:00,
2013-01-13 15:46:00,54.1,54.1,30.00,SSE,160,0.0,1.0,100,0.00,,,0.01,Wunderground v.1.15,2013-01-13 20:46:00,
2013-01-13 15:51:00,54.1,54.1,30.00,SSE,154,0.0,1.0,100,0.00,,,0.01,Wunderground v.1.15,2013-01-13 20:51:00,
2013-01-13 15:56:00,54.1,54.1,30.00,SE,145,0.0,1.0,100,0.00,,,0.01,Wunderground v.1.15,2013-01-13 20:56:00,
2013-01-13 16:02:00,54.1,54.1,29.98,SE,145,0.0,0.0,100,0.00,,,0.01,Wunderground v.1.15,2013-01-13 21:02:00,
2013-01-13 16:07:00,54.1,54.1,29.98,SE,145,0.0,0.0,100,0.00,,,0.01,Wunderground v.1.15,2013-01-13 21:07:00,
2013-01-13 16:12:00,54.1,54.1,29.98,SSE,167,0.0,0.0,100,0.00,,,0.01,Wunderground v.1.15,2013-01-13 21:12:00,
2013-01-13 16:17:00,54.1,54.1,29.99,SSE,147,0.0,0.0,100,0.00,,,0.01,Wunderground v.1.15,2013-01-13 21:17:00,
2013-01-13 16:23:00,54.1,54.1,29.99,South,179,0.0,0.0,100,0.00,,,0.01,Wunderground v.1.15,2013-01-13 21:23:00,
2013-01-13 16:28:00,53.9,53.9,29.99,SSE,157,0.0,0.0,100,0.00,,,0.01,Wunderground v.1.15,2013-01-13 21:28:00,
2013-01-13 16:33:00,53.9,53.9,29.99,South,178,0.0,0.0,100,0.00,,,0.01,Wunderground v.1.15,2013-01-13 21:33:00,
2013-01-13 16:38:00,53.9,53.9,29.99,South,178,0.0,0.0,100,0.00,,,0.01,Wunderground v.1.15,2013-01-13 21:38:00,
2013-01-13 16:43:00,53.9,53.9,29.99,South,178,0.0,0.0,100,0.00,,,0.01,Wunderground v.1.15,2013-01-13 21:43:00,
2013-01-13 16:49:00,53.9,53.9,29.99,South,178,0.0,0.0,100,0.00,,,0.01,Wunderground v.1.15,2013-01-13 21:49:00,
2013-01-13 16:54:00,53.9,53.9,29.99,South,178,0.0,0.0,100,0.00,,,0.01,Wunderground v.1.15,2013-01-13 21:54:00,
2013-01-13 16:59:00,53.9,53.9,29.99,South,178,0.0,0.0,100,0.00,,,0.01,Wunderground v.1.15,2013-01-13 21:59:00,
2013-01-13 17:04:00,53.9,53.9,29.99,South,178,0.0,0.0,100,0.00,,,0.01,Wunderground v.1.15,2013-01-13 22:04:00,
2013-01-13 17:09:00,53.9,53.9,29.99,South,178,0.0,0.0,100,0.00,,,0.01,Wunderground v.1.15,2013-01-13 22:09:00,
2013-01-13 17:14:00,53.9,53.9,29.99,South,178,0.0,0.0,100,0.00,,,0.01,Wunderground v.1.15,2013-01-13 22:14:00,
2013-01-13 17:19:00,53.8,53.8,29.99,South,178,0.0,0.0,100,0.00,,,0.01,Wunderground v.1.15,2013-01-13 22:19:00,
2013-01-13 17:24:00,53.8,53.8,29.99,South,178,0.0,0.0,100,0.00,,,0.01,Wunderground v.1.15,2013-01-13 22:24:00,
2013-01-13 17:30:00,53.8,53.8,30.00,South,178,0.0,0.0,100,0.00,,,0.01,Wunderground v.1.15,2013-01-13 22:30:00,
2013-01-13 17:36:00,53.8,53.8,30.00,South,178,0.0,0.0,100,0.00,,,0.01,Wunderground v.1.15,2013-01-13 22:36:00,
2013-01-13 17:41:00,53.6,53.6,30.00,South,178,0.0,0.0,100,0.00,,,0.01,Wunderground v.1.15,2013-01-13 22:41:00,
2013-01-13 17:46:00,53.6,53.6,30.00,South,178,0.0,0.0,100,0.00,,,0.01,Wunderground v.1.15,2013-01-13 22:46:00,
2013-01-13 17:51:00,53.6,53.6,30.00,South,178,0.0,0.0,100,0.00,,,0.01,Wunderground v.1.15,2013-01-13 22:51:00,
2013-01-13 17:56:00,53.6,53.6,30.00,South,178,0.0,0.0,100,0.00,,,0.01,Wunderground v.1.15,2013-01-13 22:56:00,
2013-01-13 18:01:00,53.6,53.6,29.99,South,178,0.0,0.0,100,0.00,,,0.01,Wunderground v.1.15,2013-01-13 23:01:00,
2013-01-13 18:07:00,53.6,53.6,29.99,South,178,0.0,0.0,100,0.00,,,0.01,Wunderground v.1.15,2013-01-13 23:07:00,
2013-01-13 18:13:00,53.5,53.5,29.99,South,178,0.0,0.0,100,0.00,,,0.01,Wunderground v.1.15,2013-01-13 23:13:00,
2013-01-13 18:19:00,53.5,53.5,29.99,South,178,0.0,0.0,100,0.00,,,0.01,Wunderground v.1.15,2013-01-13 23:19:00,
2013-01-13 18:25:00,53.5,53.5,29.99,South,178,0.0,0.0,100,0.00,,,0.01,Wunderground v.1.15,2013-01-13 23:25:00,
2013-01-13 18:30:00,53.5,53.5,29.99,South,178,0.0,0.0,100,0.00,,,0.01,Wunderground v.1.15,2013-01-13 23:30:00,
2013-01-13 18:35:00,53.5,53.5,29.99,South,178,0.0,0.0,100,0.00,,,0.01,Wunderground v.1.15,2013-01-13 23:35:00,
2013-01-13 18:40:00,53.5,53.5,29.99,South,178,0.0,0.0,100,0.00,,,0.01,Wunderground v.1.15,2013-01-13 23:40:00,
2013-01-13 18:45:00,53.5,53.5,29.98,South,178,0.0,0.0,100,0.00,,,0.01,Wunderground v.1.15,2013-01-13 23:45:00,
2013-01-13 18:50:00,53.5,53.5,29.98,South,178,0.0,0.0,100,0.00,,,0.01,Wunderground v.1.15,2013-01-13 23:50:00,
2013-01-13 18:56:00,53.5,53.5,29.98,South,178,0.0,0.0,100,0.00,,,0.01,Wunderground v.1.15,2013-01-13 23:56:00,
2013-01-13 19:01:00,53.5,53.5,29.98,South,178,0.0,0.0,100,0.00,,,0.01,Wunderground v.1.15,2013-01-14 00:01:00,
2013-01-13 19:07:00,53.5,53.5,29.98,South,178,0.0,0.0,100,0.00,,,0.01,Wunderground v.1.15,2013-01-14 00:07:00,
2013-01-13 19:12:00,53.5,53.5,29.98,South,178,0.0,0.0,100,0.00,,,0.01,Wunderground v.1.15,2013-01-14 00:12:00,
2013-01-13 19:17:00,53.5,53.5,29.98,South,178,0.0,0.0,100,0.00,,,0.01,Wunderground v.1.15,2013-01-14 00:17:00,
2013-01-13 19:22:00,53.5,53.5,29.98,South,178,0.0,0.0,100,0.00,,,0.01,Wunderground v.1.15,2013-01-14 00:22:00,
2013-01-13 19:27:00,53.5,53.5,29.98,South,178,0.0,0.0,100,0.00,,,0.01,Wunderground v.1.15,2013-01-14 00:27:00,
2013-01-13 19:32:00,53.5,53.5,29.97,South,178,0.0,0.0,100,0.00,,,0.01,Wunderground v.1.15,2013-01-14 00:32:00,
2013-01-13 19:38:00,53.5,53.5,29.97,South,178,0.0,0.0,100,0.00,,,0.01,Wunderground v.1.15,2013-01-14 00:38:00,
2013-01-13 19:43:00,53.5,53.5,29.97,South,178,0.0,0.0,100,0.00,,,0.01,Wunderground v.1.15,2013-01-14 00:43:00,
2013-01-13 19:49:00,53.3,53.3,29.97,South,178,0.0,0.0,100,0.00,,,0.01,Wunderground v.1.15,2013-01-14 00:49:00,
2013-01-13 19:54:00,53.3,53.3,29.97,South,178,0.0,0.0,100,0.00,,,0.01,Wunderground v.1.15,2013-01-14 00:54:00,
2013-01-13 19:59:00,53.3,53.3,29.97,South,178,0.0,0.0,100,0.00,,,0.01,Wunderground v.1.15,2013-01-14 00:59:00,
2013-01-13 20:05:00,53.3,53.3,29.97,South,178,0.0,0.0,100,0.00,,,0.01,Wunderground v.1.15,2013-01-14 01:05:00,
2013-01-13 20:10:00,53.3,53.3,29.97,South,178,0.0,0.0,100,0.00,,,0.01,Wunderground v.1.15,2013-01-14 01:10:00,
2013-01-13 20:15:00,53.3,53.3,29.96,South,178,0.0,0.0,100,0.00,,,0.01,Wunderground v.1.15,2013-01-14 01:15:00,
2013-01-13 20:20:00,53.3,53.3,29.96,South,178,0.0,0.0,100,0.00,,,0.01,Wunderground v.1.15,2013-01-14 01:20:00,
2013-01-13 20:25:00,53.3,53.3,29.96,South,178,0.0,0.0,100,0.00,,,0.01,Wunderground v.1.15,2013-01-14 01:25:00,
2013-01-13 20:30:00,53.3,53.3,29.96,South,174,0.0,0.0,100,0.00,,,0.01,Wunderground v.1.15,2013-01-14 01:30:00,
2013-01-13 20:35:00,53.3,53.3,29.96,South,174,0.0,0.0,100,0.00,,,0.01,Wunderground v.1.15,2013-01-14 01:35:00,
2013-01-13 20:40:00,53.3,53.3,29.96,South,174,0.0,0.0,100,0.00,,,0.01,Wunderground v.1.15,2013-01-14 01:40:00,
2013-01-13 20:46:00,53.3,53.3,29.95,South,174,0.0,0.0,100,0.00,,,0.01,Wunderground v.1.15,2013-01-14 01:46:00,
2013-01-13 20:52:00,53.3,53.3,29.95,South,174,0.0,0.0,100,0.00,,,0.01,Wunderground v.1.15,2013-01-14 01:52:00,
2013-01-13 20:57:00,53.3,53.3,29.95,South,174,0.0,0.0,100,0.00,,,0.01,Wunderground v.1.15,2013-01-14 01:57:00,
2013-01-13 21:02:00,53.3,53.3,29.95,South,174,0.0,0.0,100,0.00,,,0.01,Wunderground v.1.15,2013-01-14 02:02:00,
2013-01-13 21:07:00,53.3,53.3,29.95,South,174,0.0,0.0,100,0.00,,,0.01,Wunderground v.1.15,2013-01-14 02:07:00,
2013-01-13 21:12:00,53.3,53.3,29.95,South,174,0.0,0.0,100,0.00,,,0.01,Wunderground v.1.15,2013-01-14 02:12:00,
2013-01-13 21:17:00,53.3,53.3,29.95,South,174,0.0,0.0,100,0.00,,,0.01,Wunderground v.1.15,2013-01-14 02:17:00,
2013-01-13 21:23:00,53.3,53.3,29.95,South,174,0.0,0.0,100,0.00,,,0.01,Wunderground v.1.15,2013-01-14 02:23:00,
2013-01-13 21:28:00,53.5,53.5,29.95,South,174,0.0,0.0,100,0.00,,,0.01,Wunderground v.1.15,2013-01-14 02:28:00,
2013-01-13 21:33:00,53.5,53.5,29.95,South,174,0.0,0.0,100,0.00,,,0.01,Wunderground v.1.15,2013-01-14 02:33:00,
2013-01-13 21:38:00,53.5,53.5,29.95,South,174,0.0,0.0,100,0.00,,,0.01,Wunderground v.1.15,2013-01-14 02:38:00,
2013-01-13 21:43:00,53.5,53.5,29.95,South,174,0.0,0.0,100,0.00,,,0.01,Wunderground v.1.15,2013-01-14 02:43:00,
2013-01-13 21:48:00,53.5,53.5,29.94,South,174,0.0,0.0,100,0.00,,,0.01,Wunderground v.1.15,2013-01-14 02:48:00,
2013-01-13 21:53:00,53.5,53.5,29.94,South,174,0.0,0.0,100,0.00,,,0.01,Wunderground v.1.15,2013-01-14 02:53:00,
2013-01-13 21:58:00,53.5,53.5,29.94,South,174,0.0,0.0,100,0.00,,,0.01,Wunderground v.1.15,2013-01-14 02:58:00,
2013-01-13 22:04:00,53.5,53.5,29.94,SSE,161,0.0,0.0,100,0.00,,,0.01,Wunderground v.1.15,2013-01-14 03:04:00,
2013-01-13 22:10:00,53.5,53.5,29.94,SSE,161,0.0,0.0,100,0.00,,,0.01,Wunderground v.1.15,2013-01-14 03:10:00,
2013-01-13 22:16:00,53.5,53.5,29.95,SSE,161,0.0,0.0,100,0.00,,,0.01,Wunderground v.1.15,2013-01-14 03:16:00,
2013-01-13 22:21:00,53.5,53.5,29.95,SSE,161,0.0,0.0,100,0.00,,,0.01,Wunderground v.1.15,2013-01-14 03:21:00,
2013-01-13 22:26:00,53.6,53.6,29.95,SSW,192,0.0,0.0,100,0.00,,,0.01,Wunderground v.1.15,2013-01-14 03:26:00,
2013-01-13 22:31:00,53.6,53.6,29.95,SSW,192,0.0,0.0,100,0.00,,,0.01,Wunderground v.1.15,2013-01-14 03:31:00,
2013-01-13 22:36:00,53.8,53.8,29.95,SSW,192,0.0,0.0,100,0.00,,,0.01,Wunderground v.1.15,2013-01-14 03:36:00,
2013-01-13 22:41:00,53.9,53.9,29.95,SSW,192,0.0,0.0,100,0.00,,,0.01,Wunderground v.1.15,2013-01-14 03:41:00,
2013-01-13 22:47:00,54.1,54.1,29.95,SSW,192,0.0,0.0,100,0.00,,,0.01,Wunderground v.1.15,2013-01-14 03:47:00,
2013-01-13 22:52:00,54.2,54.2,29.95,SSW,196,0.0,0.0,100,0.00,,,0.01,Wunderground v.1.15,2013-01-14 03:52:00,
2013-01-13 22:57:00,54.4,54.4,29.95,SSW,196,0.0,0.0,100,0.00,,,0.01,Wunderground v.1.15,2013-01-14 03:57:00,
2013-01-13 23:03:00,54.5,54.5,29.94,SSW,196,0.0,0.0,100,0.00,,,0.01,Wunderground v.1.15,2013-01-14 04:03:00,
2013-01-13 23:08:00,54.7,54.7,29.94,South,188,0.0,0.0,100,0.00,,,0.01,Wunderground v.1.15,2013-01-14 04:08:00,
2013-01-13 23:13:00,55.0,55.0,29.94,South,182,0.0,0.0,100,0.00,,,0.01,Wunderground v.1.15,2013-01-14 04:13:00,
2013-01-13 23:18:00,55.1,55.1,29.94,SSW,205,0.0,0.0,100,0.00,,,0.01,Wunderground v.1.15,2013-01-14 04:18:00,
2013-01-13 23:23:00,55.4,55.4,29.94,South,184,0.0,1.0,100,0.00,,,0.01,Wunderground v.1.15,2013-01-14 04:23:00,
2013-01-13 23:28:00,55.6,55.6,29.94,South,185,0.0,1.0,100,0.00,,,0.01,Wunderground v.1.15,2013-01-14 04:28:00,
2013-01-13 23:33:00,55.7,55.7,29.94,SSW,205,0.0,0.0,100,0.00,,,0.01,Wunderground v.1.15,2013-01-14 04:33:00,
2013-01-13 23:38:00,55.9,55.9,29.94,SSW,205,0.0,0.0,100,0.00,,,0.01,Wunderground v.1.15,2013-01-14 04:38:00,
2013-01-13 23:43:00,55.9,55.9,29.94,South,191,0.0,0.0,100,0.00,,,0.01,Wunderground v.1.15,2013-01-14 04:43:00,
2013-01-13 23:49:00,56.0,56.0,29.93,SW,216,0.0,0.0,100,0.00,,,0.01,Wunderground v.1.15,2013-01-14 04:49:00,
2013-01-13 23:54:00,56.2,56.2,29.93,SSW,208,0.0,2.0,100,0.00,,,0.01,Wunderground v.1.15,2013-01-14 04:54:00,
2013-01-13 23:59:00,56.3,56.3,29.93,SW,222,0.0,2.0,100,0.00,,,0.01,Wunderground v.1.15,2013-01-14 04:59:00,